Skip Page Navigation
NASA JPL Caltech
NASA Logo - Jet Propulsion Laboratory + View the NASA Portal
+ Near-Earth Object (NEO) Program
Search JPL
JPL Home Earth Solar System Stars & Galaxies Technology
JPL Solar System Dynamics
BODIES ORBITS EPHEMERIDES TOOLS PHYSICAL DATA DISCOVERY FAQ SITE MAP
JPL Small-Body Database Browser
Search: [ help ]  
3636 Pajdusakova (1982 UJ2)
Classification: Main-belt Asteroid          SPK-ID: 2003636
Ephemeris | Orbit Diagram | Orbital Elements | Physical Parameters | Discovery Circumstances ]

[ show orbit diagram ]
Orbital Elements at Epoch 2456800.5 (2014-May-23.0) TDB
Reference: JPL 10 (heliocentric ecliptic J2000)
 Element Value Uncertainty (1-sigma)   Units 
e .1758335654910702 4.5596e-08  
a 2.277145087430354 1.043e-08 AU
q 1.876746547567 1.0617e-07 AU
i 4.104207113344567 5.8312e-06 deg
node 27.04116591134994 6.2181e-05 deg
peri 93.75724859369213 6.5566e-05 deg
M 8.098290894683902 1.7404e-05 deg
tp 2456772.265808728638
(2014-Apr-24.76580873)
6.0672e-05 JED
period 1255.117776068358
3.44
8.6236e-06
2.361e-08
d
yr
n .2868256723506027 1.9707e-09 deg/d
Q 2.677543627293708 1.2264e-08 AU
  Orbit Determination Parameters
   # obs. used (total)      1218  
   data-arc span      21774 days (59.61 yr)  
   first obs. used      1954-07-29  
   last obs. used      2014-03-10  
   planetary ephem.      DE431  
   SB-pert. ephem.      SB431-BIG16  
   condition code      0  
   fit RMS      .46301  
   data source      ORB  
   producer      Otto Matic  
   solution date      2014-Jun-09 17:53:38  

Additional Information
 Earth MOID = .897772 AU 
 T_jup = 3.584 
[ show covariance matrix ]

Ephemeris | Orbit Diagram | Orbital Elements | Physical Parameters | Discovery Circumstances ]

Physical Parameter Table
Parameter Symbol Value Units Sigma Reference Notes
absolute magnitude H 13.8 mag n/a MPO265976  
SMASSII spectral type spec_B S   n/a EAR-A-5-DDR-TAXONOMY-V4.0 based on a high-resolution spectrum by Xu et al. (1995) or Bus and Binzel (2002)

3636 Pajdusakova (1982 UJ2)          Discovered 1982-Oct-17 by Mrkos, A. at Klet
Reference: DISCOVERY.DBLast Updated: 2003-08-29

Alternate Designations
 1982 UJ2 = 1973 AB4 = 1980 DU2 
Ephemeris | Orbit Diagram | Orbital Elements | Physical Parameters | Discovery Circumstances ]
ABOUT SSD CREDITS/AWARDS PRIVACY/COPYRIGHT GLOSSARY LINKS
FirstGov 2014-Jul-29 20:53 UT
(server date/time)  
NASA Home Page
Site Manager:   Donald K. Yeomans
Webmaster  Alan B. Chamberlin